| time (UTC) | temp C | wind direction | speed KPH | gust KPH | rain 1hr cm | rain 24hr cm | rain mn cm | humidity % | barometer mb |
| 20260507060051 | 12 | 134 | 3.2 | 8.0 | 0.00 | 0.00 | 0.00 | 83 | 1020.7 |
| 20260507054552 | 12 | 169 | 3.2 | 9.7 | 0.00 | 0.00 | 0.00 | 83 | 1020.7 |
| 20260507053050 | 12 | 150 | 3.2 | 11.3 | 0.00 | 0.00 | 0.00 | 82 | 1020.7 |
| 20260507051554 | 12 | 0 | 1.6 | 6.4 | 0.00 | 0.00 | 0.00 | 82 | 1020.7 |
| 20260507050058 | 12 | 0 | 1.6 | 12.9 | 0.00 | 0.00 | 0.00 | 80 | 1020.5 |
| 20260507044555 | 12 | 155 | 1.6 | 6.4 | 0.00 | 0.00 | 0.00 | 80 | 1020.7 |
| 20260507043049 | 12 | 182 | 0.0 | 8.0 | 0.00 | 0.00 | 0.00 | 79 | 1020.8 |
| 20260507041550 | 13 | 164 | 0.0 | 3.2 | 0.00 | 0.00 | 0.00 | 78 | 1020.6 |
| 20260507040046 | 13 | 165 | 0.0 | 3.2 | 0.00 | 0.00 | 0.00 | 77 | 1020.7 |
| 20260507034608 | 13 | 0 | 0.0 | 3.2 | 0.00 | 0.00 | 0.00 | 77 | 1020.5 |
| 20260507033103 | 13 | 0 | 0.0 | 4.8 | 0.00 | 0.00 | 0.00 | 77 | 1020.4 |
| 20260507031548 | 13 | 0 | 0.0 | 6.4 | 0.00 | 0.00 | 0.00 | 77 | 1020.4 |
| 20260507030047 | 13 | 0 | 0.0 | 6.4 | 0.00 | 0.00 | 0.00 | 77 | 1020.2 |
| 20260507024557 | 13 | 0 | 0.0 | 8.0 | 0.00 | 0.00 | 0.00 | 76 | 1020.2 |
| 20260507023050 | 13 | 156 | 0.0 | 3.2 | 0.00 | 0.00 | 0.00 | 76 | 1020.1 |
| 20260507021604 | 13 | 0 | 0.0 | 4.8 | 0.00 | 0.00 | 0.00 | 77 | 1020.0 |
| 20260507020047 | 13 | 0 | 0.0 | 4.8 | 0.00 | 0.00 | 0.00 | 76 | 1020.0 |
| 20260507014549 | 13 | 302 | 1.6 | 6.4 | 0.00 | 0.00 | 0.00 | 76 | 1020.1 |
| 20260507013058 | 13 | 275 | 1.6 | 8.0 | 0.00 | 0.00 | 0.00 | 76 | 1020.1 |
| 20260507011551 | 13 | 196 | 0.0 | 3.2 | 0.00 | 0.00 | 0.00 | 76 | 1020.1 |
| 20260507010052 | 13 | 268 | 1.6 | 6.4 | 0.00 | 0.00 | 0.00 | 77 | 1020.2 |
| 20260507004549 | 13 | 202 | 1.6 | 11.3 | 0.00 | 0.00 | 0.00 | 76 | 1020.2 |
| 20260507003047 | 13 | 0 | 0.0 | 9.7 | 0.00 | 0.00 | 0.00 | 76 | 1020.2 |
| 20260507001608 | 13 | 221 | 3.2 | 11.3 | 0.00 | 0.00 | 0.00 | 76 | 1020.2 |
| 20260507000048 | 13 | 157 | 4.8 | 14.5 | 0.00 | 0.00 | 0.00 | 75 | 1020.1 |
| 20260506234558 | 13 | 0 | 1.6 | 9.7 | 0.00 | 0.00 | 0.00 | 75 | 1020.3 |
| 20260506233053 | 13 | 266 | 1.6 | 8.0 | 0.00 | 0.00 | 0.00 | 74 | 1020.2 |
| 20260506231554 | 13 | 0 | 3.2 | 11.3 | 0.00 | 0.00 | 0.00 | 74 | 1020.2 |
| 20260506230050 | 13 | 0 | 3.2 | 16.1 | 0.00 | 0.00 | 0.00 | 73 | 1020.3 |
| 20260506224605 | 13 | 210 | 4.8 | 14.5 | 0.00 | 0.00 | 0.00 | 72 | 1020.4 |
| 20260506223049 | 13 | 229 | 1.6 | 17.7 | 0.00 | 0.00 | 0.00 | 72 | 1020.3 |
| 20260506221546 | 14 | 185 | 4.8 | 14.5 | 0.00 | 0.00 | 0.00 | 70 | 1020.5 |
| 20260506220104 | 13 | 176 | 4.8 | 17.7 | 0.00 | 0.00 | 0.00 | 71 | 1020.5 |
| 20260506214551 | 13 | 211 | 6.4 | 14.5 | 0.00 | 0.00 | 0.00 | 71 | 1020.5 |
| 20260506213049 | 13 | 198 | 3.2 | 16.1 | 0.00 | 0.00 | 0.00 | 71 | 1020.5 |
| 20260506211554 | 13 | 222 | 1.6 | 14.5 | 0.00 | 0.00 | 0.00 | 73 | 1020.7 |
| 20260506210047 | 13 | 179 | 3.2 | 8.0 | 0.00 | 0.00 | 0.00 | 72 | 1020.6 |
| 20260506204551 | 13 | 203 | 3.2 | 14.5 | 0.00 | 0.00 | 0.00 | 73 | 1020.5 |
| 20260506203049 | 13 | 190 | 8.0 | 16.1 | 0.00 | 0.00 | 0.00 | 72 | 1020.6 |
| 20260506201551 | 13 | 202 | 1.6 | 9.7 | 0.00 | 0.00 | 0.00 | 75 | 1020.5 |
| 20260506200051 | 13 | 165 | 1.6 | 11.3 | 0.00 | 0.00 | 0.00 | 77 | 1020.5 |
| 20260506194553 | 12 | 180 | 3.2 | 12.9 | 0.00 | 0.00 | 0.00 | 78 | 1020.4 |
| 20260506193053 | 12 | 200 | 0.0 | 3.2 | 0.00 | 0.00 | 0.00 | 81 | 1020.3 |
| 20260506191548 | 12 | 122 | 0.0 | 3.2 | 0.00 | 0.00 | 0.00 | 82 | 1020.4 |
| 20260506190052 | 12 | 167 | 0.0 | 6.4 | 0.00 | 0.00 | 0.00 | 83 | 1020.2 |
| 20260506184551 | 12 | 204 | 1.6 | 9.7 | 0.00 | 0.00 | 0.00 | 86 | 1020.3 |
| 20260506183047 | 11 | 0 | 3.2 | 11.3 | 0.00 | 0.00 | 0.00 | 87 | 1020.3 |
| 20260506181559 | 11 | 0 | 1.6 | 8.0 | 0.00 | 0.00 | 0.00 | 87 | 1020.3 |
| 20260506180048 | 11 | 140 | 3.2 | 11.3 | 0.00 | 0.00 | 0.00 | 88 | 1020.1 |
| 20260506174545 | 11 | 167 | 3.2 | 11.3 | 0.00 | 0.00 | 0.00 | 89 | 1019.8 |
| 20260506173107 | 11 | 166 | 3.2 | 9.7 | 0.00 | 0.00 | 0.00 | 89 | 1020.0 |
| 20260506171553 | 11 | 261 | 3.2 | 6.4 | 0.00 | 0.00 | 0.00 | 88 | 1020.1 |
| 20260506170059 | 12 | 158 | 3.2 | 6.4 | 0.00 | 0.00 | 0.00 | 85 | 1020.1 |
| 20260506164548 | 12 | 281 | 1.6 | 8.0 | 0.00 | 0.00 | 0.00 | 84 | 1019.9 |
| 20260506163054 | 12 | 177 | 0.0 | 12.9 | 0.00 | 0.00 | 0.00 | 84 | 1019.8 |
| 20260506161550 | 12 | 192 | 1.6 | 11.3 | 0.00 | 0.00 | 0.00 | 84 | 1019.6 |
| 20260506160059 | 11 | 170 | 6.4 | 14.5 | 0.00 | 0.00 | 0.00 | 87 | 1019.3 |
| 20260506154548 | 11 | 182 | 1.6 | 14.5 | 0.00 | 0.00 | 0.00 | 88 | 1019.4 |
| 20260506153047 | 11 | 119 | 3.2 | 9.7 | 0.00 | 0.00 | 0.00 | 88 | 1019.7 |
| 20260506151547 | 11 | 157 | 0.0 | 9.7 | 0.00 | 0.00 | 0.00 | 89 | 1019.7 |
| 20260506150050 | 11 | 0 | 3.2 | 6.4 | 0.00 | 0.00 | 0.00 | 89 | 1019.4 |
| 20260506144547 | 11 | 176 | 4.8 | 11.3 | 0.00 | 0.00 | 0.00 | 88 | 1019.3 |
| 20260506143045 | 11 | 181 | 3.2 | 9.7 | 0.00 | 0.00 | 0.00 | 87 | 1019.5 |
| 20260506141545 | 11 | 0 | 1.6 | 9.7 | 0.00 | 0.00 | 0.00 | 86 | 1019.4 |
| 20260506140049 | 11 | 0 | 0.0 | 8.0 | 0.00 | 0.00 | 0.00 | 86 | 1019.2 |
| 20260506134548 | 11 | 174 | 0.0 | 6.4 | 0.00 | 0.00 | 0.00 | 86 | 1019.3 |
| 20260506133045 | 11 | 225 | 0.0 | 4.8 | 0.00 | 0.00 | 0.00 | 86 | 1019.0 |
| 20260506131600 | 11 | 0 | 0.0 | 8.0 | 0.00 | 0.00 | 0.00 | 85 | 1019.0 |
| 20260506130055 | 11 | 201 | 3.2 | 11.3 | 0.00 | 0.00 | 0.00 | 86 | 1018.6 |
| 20260506124552 | 11 | 170 | 3.2 | 9.7 | 0.00 | 0.00 | 0.00 | 85 | 1018.7 |
| 20260506123048 | 11 | 140 | 6.4 | 12.9 | 0.00 | 0.00 | 0.00 | 85 | 1018.5 |
| 20260506121548 | 12 | 185 | 1.6 | 8.0 | 0.00 | 0.00 | 0.00 | 85 | 1018.3 |
| 20260506120049 | 12 | 174 | 3.2 | 8.0 | 0.00 | 0.00 | 0.00 | 84 | 1018.3 |
| 20260506114547 | 12 | 168 | 3.2 | 6.4 | 0.00 | 0.00 | 0.00 | 84 | 1018.2 |
| 20260506113046 | 12 | 175 | 1.6 | 8.0 | 0.00 | 0.00 | 0.00 | 84 | 1018.0 |
| 20260506111552 | 12 | 0 | 0.0 | 4.8 | 0.00 | 0.00 | 0.00 | 84 | 1018.0 |
| 20260506110050 | 12 | 0 | 1.6 | 6.4 | 0.00 | 0.00 | 0.00 | 84 | 1017.9 |
| 20260506104549 | 12 | 0 | 0.0 | 3.2 | 0.00 | 0.00 | 0.00 | 84 | 1017.8 |
| 20260506103047 | 12 | 277 | 1.6 | 6.4 | 0.00 | 0.00 | 0.00 | 84 | 1017.8 |
| 20260506101549 | 12 | 286 | 1.6 | 12.9 | 0.00 | 0.00 | 0.00 | 84 | 1017.7 |
| 20260506100051 | 12 | 211 | 3.2 | 12.9 | 0.00 | 0.00 | 0.00 | 84 | 1017.5 |
| 20260506094619 | 12 | 0 | 0.0 | 3.2 | 0.00 | 0.00 | 0.00 | 84 | 1017.3 |
| 20260506093047 | 12 | 0 | 0.0 | 6.4 | 0.00 | 0.00 | 0.00 | 84 | 1017.3 |
| 20260506091548 | 12 | 246 | 0.0 | 3.2 | 0.00 | 0.00 | 0.00 | 85 | 1017.2 |
| 20260506090044 | 11 | 0 | 1.6 | 6.4 | 0.00 | 0.00 | 0.00 | 86 | 1017.1 |
| 20260506084550 | 12 | 0 | 0.0 | 0.0 | 0.00 | 0.00 | 0.00 | 85 | 1016.9 |
| 20260506083051 | 12 | 0 | 0.0 | 4.8 | 0.00 | 0.00 | 0.00 | 84 | 1016.7 |
| 20260506081546 | 12 | 190 | 1.6 | 4.8 | 0.00 | 0.00 | 0.00 | 84 | 1016.7 |
| 20260506073054 | 12 | 0 | 0.0 | 0.0 | 0.00 | 0.00 | 0.00 | 85 | 1016.5 |
| 20260506071551 | 12 | 0 | 0.0 | 3.2 | 0.00 | 0.00 | 0.00 | 84 | 1016.5 |
| 20260506061545 | 13 | 0 | 0.0 | 0.0 | 0.00 | 0.00 | 0.00 | 81 | 1016.2 |